Total_Precipitation_Accumulation
-0.00 0.00 0.00 -0.00 -0.00 -0.00 0.00 0.00 0.00 0.00 0.00 0.00 0.00 0.00 0.00 0.00 0.00 0.00 0.00 0.00 0.00 0.00 -0.00 0.00 0.00 0.00 0.00 0.00 0.00 0.00 0.00 0.00 0.00 0.00 0.00 -0.00 -0.00 -0.00 -0.08 -0.14 -0.14 -0.17 -0.25 -0.18 -0.21 -0.21 -0.23 -0.34 -0.30 -0.30 -0.27 -0.29 -0.21 -0.21 -0.23 -0.26 -0.26 -0.25 -0.28 -0.23 -0.23 -0.19 -0.15 -0.13 -0.03 -0.03 -0.19 -0.34 -0.40 -0.40 -0.30 -0.46 -0.08 -0.08 -0.06 -0.03 -0.03 0.00 0.00 0.00 0.00 0.00 0.00 -0.00 -0.03 -0.03 -0.04 -0.12 0.04 0.04 0.05 0.06 0.05 0.05 -0.01 -0.00 -0.00 -0.02 0.01 0.01 0.01 -0.01 0.04
0.00 -0.00 -0.00 0.00 0.00 0.00 0.00 0.00 0.00 0.00 0.00 0.00 0.00 0.00 0.00 0.00 0.00 0.00 0.00 0.00 0.00 -0.00 0.00 0.00 -0.00 -0.00 -0.00 -0.00 0.00 0.00 0.00 0.00 0.00 0.00 0.00 0.00 0.00 0.00 -0.00 -0.11 -0.11 -0.16 -0.20 -0.24 -0.27 -0.27 -0.29 -0.30 -0.30 -0.30 -0.28 -0.29 -0.17 -0.17 -0.18 -0.14 -0.14 -0.19 -0.21 -0.34 -0.34 -0.28 -0.14 -0.16 -0.11 -0.11 -0.23 -0.32 -0.48 -0.48 -0.46 -0.52 -0.29 -0.29 -0.10 -0.08 -0.08 0.00 0.00 0.00 0.00 0.00 0.00 -0.01 -0.04 -0.04 -0.05 -0.14 -0.01 -0.01 0.03 -0.02 0.04 0.04 -0.01 0.02 0.02 0.01 -0.01 -0.01 -0.01 -0.01 0.01
-0.00 -0.00 -0.00 0.00 0.00 0.00 0.00 0.00 0.00 0.00 0.00 0.00 0.00 0.00 -0.00 0.00 0.00 0.00 0.00 0.00 0.00 0.00 -0.00 -0.00 0.00 0.00 0.00 0.00 -0.00 -0.00 -0.00 -0.00 0.00 0.00 0.00 0.00 0.00 0.00 -0.00 -0.05 -0.05 -0.13 -0.19 -0.22 -0.28 -0.28 -0.30 -0.31 -0.24 -0.24 -0.21 -0.33 -0.26 -0.26 -0.13 -0.09 -0.09 -0.18 -0.15 -0.31 -0.31 -0.26 -0.30 -0.40 -0.32 -0.32 -0.27 -0.26 -0.50 -0.50 -0.50 -0.55 -0.35 -0.35 -0.25 -0.12 -0.12 -0.04 0.00 0.00 0.00 0.00 0.00 0.00 -0.04 -0.04 -0.05 -0.15 -0.02 -0.02 0.01 -0.01 0.06 0.06 0.01 0.02 0.02 0.00 0.02 0.03 0.03 -0.02 0.02
-0.00 0.00 0.00 0.00 0.00 0.00 0.00 0.00 0.00 0.00 0.00 0.00 0.00 0.00 0.00 0.00 0.00 0.00 0.00 0.00 0.00 -0.00 -0.00 0.00 0.00 0.00 -0.00 -0.00 -0.00 -0.00 -0.00 -0.00 -0.00 -0.00 -0.00 -0.00 -0.00 -0.00 -0.00 -0.01 -0.01 -0.09 -0.17 -0.15 -0.19 -0.19 -0.28 -0.25 -0.21 -0.21 -0.15 -0.34 -0.33 -0.33 -0.11 -0.08 -0.08 -0.07 -0.13 -0.12 -0.12 -0.14 -0.22 -0.51 -0.53 -0.53 -0.68 -0.53 -0.48 -0.48 -0.50 -0.61 -0.39 -0.39 -0.28 -0.17 -0.17 -0.08 -0.01 0.00 0.00 0.00 0.00 0.00 -0.05 -0.05 -0.05 -0.05 -0.02 -0.02 0.00 0.00 0.05 0.05 -0.00 0.02 0.02 0.01 0.03 0.03 0.03 0.00 0.08
0.00 0.00 0.00 0.00 0.00 0.00 0.00 0.00 0.00 0.00 0.00 0.00 0.00 0.00 0.00 0.00 0.00 0.00 0.00 0.00 0.00 0.00 -0.00 -0.00 0.00 0.00 -0.00 -0.00 -0.00 -0.00 -0.00 -0.00 -0.00 -0.00 -0.00 -0.00 -0.00 -0.00 -0.00 -0.01 -0.01 -0.05 -0.15 -0.08 -0.07 -0.07 -0.16 -0.15 -0.11 -0.11 -0.12 -0.24 -0.38 -0.38 -0.26 -0.10 -0.10 -0.07 -0.09 -0.10 -0.10 -0.07 -0.08 -0.16 -0.76 -0.76 -0.86 -0.74 -0.60 -0.60 -0.61 -0.55 -0.50 -0.50 -0.31 -0.27 -0.27 -0.12 -0.04 0.00 0.00 0.00 0.00 0.00 -0.05 -0.05 -0.06 -0.05 -0.15 -0.15 0.00 -0.00 0.03 0.03 -0.01 0.02 0.02 0.00 0.00 0.02 0.02 0.01 0.03
0.00 0.00 0.00 0.00 0.00 0.00 0.00 0.00 0.00 0.00 0.00 0.00 0.00 0.00 0.00 0.00 0.00 0.00 -0.00 -0.00 -0.00 -0.00 -0.00 -0.00 -0.00 -0.00 -0.00 -0.00 -0.00 -0.00 -0.00 -0.00 -0.00 -0.00 -0.00 -0.00 -0.00 -0.00 -0.01 -0.01 -0.01 -0.03 -0.07 -0.07 -0.09 -0.09 -0.07 -0.09 -0.07 -0.07 -0.08 -0.19 -0.39 -0.39 -0.30 -0.18 -0.18 -0.11 -0.07 -0.08 -0.08 -0.11 -0.15 -0.15 -0.75 -0.75 -0.72 -0.84 -0.71 -0.71 -0.54 -0.51 -0.46 -0.46 -0.34 -0.27 -0.27 -0.21 -0.07 -0.03 -0.03 0.00 0.00 0.00 -0.05 -0.05 -0.07 -0.05 -0.14 -0.14 0.00 -0.00 -0.02 -0.02 -0.05 -0.00 -0.00 0.02 0.01 0.04 0.04 0.05 0.03
0.00 0.00 -0.00 0.00 0.00 0.00 0.00 0.00 0.00 0.00 0.00 0.00 0.00 0.00 0.00 0.00 0.00 0.00 -0.00 -0.00 -0.00 -0.00 -0.00 -0.00 -0.00 -0.00 -0.00 -0.00 -0.00 -0.00 -0.00 -0.00 -0.01 -0.01 -0.01 -0.01 -0.01 -0.01 -0.01 -0.01 -0.01 -0.02 -0.04 -0.05 -0.10 -0.10 -0.07 -0.06 -0.06 -0.06 -0.07 -0.15 -0.26 -0.26 -0.40 -0.44 -0.44 -0.23 -0.09 -0.09 -0.09 -0.13 -0.24 -0.35 -0.40 -0.40 -0.56 -0.67 -0.79 -0.79 -0.65 -0.61 -0.47 -0.47 -0.45 -0.31 -0.31 -0.23 -0.09 -0.04 -0.04 0.00 0.00 0.00 -0.06 -0.06 -0.08 -0.06 -0.13 -0.13 -0.03 -0.00 -0.01 -0.01 -0.02 -0.00 -0.00 0.00 0.01 0.01 0.01 0.00 0.04
-0.00 -0.00 -0.00 0.00 0.00 0.00 0.00 0.00 0.00 0.00 0.00 0.00 0.00 0.00 0.00 0.00 0.00 0.00 0.00 -0.00 -0.00 -0.00 -0.00 -0.00 -0.00 -0.00 -0.00 -0.00 -0.00 -0.00 -0.00 -0.01 -0.01 -0.01 -0.01 -0.01 -0.01 -0.01 -0.01 -0.02 -0.02 -0.02 -0.03 -0.04 -0.06 -0.06 -0.07 -0.07 -0.06 -0.06 -0.05 -0.14 -0.23 -0.23 -0.43 -0.47 -0.47 -0.44 -0.31 -0.17 -0.17 -0.16 -0.25 -0.47 -0.57 -0.57 -0.56 -0.55 -0.64 -0.64 -0.74 -0.74 -0.53 -0.53 -0.48 -0.47 -0.47 -0.27 -0.18 -0.07 -0.07 -0.02 0.00 0.00 0.00 0.00 -0.09 -0.06 -0.05 -0.05 -0.03 -0.01 -0.01 -0.01 -0.03 -0.04 -0.04 0.00 0.01 0.01 0.01 -0.00 -0.00
-0.00 -0.00 0.00 0.00 0.00 0.00 0.00 0.00 -0.00 -0.00 -0.00 -0.00 0.00 0.00 0.00 0.00 0.00 0.00 0.00 0.00 0.00 0.00 -0.00 -0.00 -0.00 -0.00 -0.00 -0.00 -0.00 -0.00 -0.00 -0.00 -0.01 -0.01 -0.01 -0.01 -0.01 -0.02 -0.02 -0.03 -0.03 -0.03 -0.04 -0.08 -0.05 -0.05 -0.06 -0.06 -0.06 -0.06 -0.05 -0.11 -0.20 -0.20 -0.29 -0.48 -0.48 -0.56 -0.50 -0.32 -0.32 -0.27 -0.22 -0.40 -0.61 -0.61 -0.75 -0.56 -0.60 -0.60 -0.75 -0.76 -0.68 -0.68 -0.53 -0.51 -0.51 -0.30 -0.20 -0.13 -0.13 -0.03 0.00 0.00 0.00 0.00 -0.07 -0.05 -0.04 -0.04 -0.02 -0.01 -0.00 -0.00 -0.04 -0.04 -0.04 -0.01 0.01 0.01 0.01 0.01 0.01
-0.00 -0.00 0.00 0.00 0.00 0.00 -0.00 -0.00 -0.00 -0.00 -0.00 0.00 0.00 0.00 0.00 0.00 0.00 0.00 0.00 0.00 0.00 0.00 -0.00 -0.00 -0.00 -0.00 -0.00 -0.00 -0.01 -0.01 -0.01 -0.01 -0.01 -0.01 -0.01 -0.02 -0.02 -0.03 -0.03 -0.04 -0.04 -0.04 -0.04 -0.12 -0.13 -0.13 -0.06 -0.06 -0.06 -0.06 -0.06 -0.05 -0.18 -0.18 -0.25 -0.37 -0.37 -0.53 -0.67 -0.63 -0.63 -0.65 -0.35 -0.50 -0.67 -0.67 -0.75 -0.81 -0.59 -0.59 -0.67 -0.77 -0.69 -0.69 -0.64 -0.57 -0.57 -0.45 -0.25 -0.17 -0.17 -0.09 -0.02 0.00 -0.00 -0.00 -0.08 -0.08 -0.04 -0.04 -0.08 -0.01 -0.01 -0.01 -0.00 -0.03 -0.03 -0.01 0.01 0.01 0.01 0.01 0.01
-0.00 -0.00 0.00 -0.00 0.00 0.00 -0.00 -0.00 -0.00 -0.00 -0.00 0.00 0.00 0.00 0.00 0.00 0.00 0.00 0.00 0.00 0.00 0.00 -0.00 -0.00 -0.00 -0.00 -0.00 -0.01 -0.01 -0.01 -0.01 -0.01 -0.02 -0.02 -0.05 -0.05 -0.05 -0.05 -0.03 -0.03 -0.03 -0.04 -0.04 -0.09 -0.13 -0.13 -0.15 -0.06 -0.07 -0.07 -0.06 -0.06 -0.15 -0.15 -0.18 -0.27 -0.27 -0.40 -0.58 -0.70 -0.70 -0.68 -0.64 -0.69 -0.76 -0.76 -0.82 -0.77 -0.65 -0.65 -0.63 -0.66 -0.67 -0.67 -0.63 -0.59 -0.59 -0.51 -0.39 -0.21 -0.21 -0.11 -0.03 -0.01 0.00 0.00 -0.07 -0.07 -0.03 -0.03 -0.06 -0.01 -0.01 -0.01 -0.00 -0.02 -0.02 -0.01 0.01 0.01 0.01 0.01 0.01
-0.00 -0.00 -0.00 -0.00 -0.00 -0.00 -0.00 -0.00 -0.00 -0.00 0.00 0.00 0.00 0.00 0.00 0.00 0.00 0.00 0.00 0.00 0.00 0.00 -0.00 -0.00 -0.00 -0.00 -0.00 -0.01 -0.01 -0.01 -0.01 -0.01 -0.03 -0.03 -0.05 -0.05 -0.05 -0.05 -0.03 -0.02 -0.02 -0.03 -0.03 -0.05 -0.10 -0.10 -0.13 -0.07 -0.07 -0.07 -0.06 -0.06 -0.06 -0.06 -0.15 -0.22 -0.22 -0.37 -0.45 -0.54 -0.54 -0.62 -0.68 -0.92 -1.06 -1.06 -0.92 -0.81 -0.76 -0.76 -0.70 -0.61 -0.64 -0.64 -0.62 -0.59 -0.59 -0.55 -0.43 -0.26 -0.26 -0.16 -0.10 -0.02 -0.01 -0.01 -0.00 -0.06 -0.04 -0.04 -0.03 -0.00 -0.00 -0.00 -0.01 -0.02 -0.02 -0.02 0.01 0.02 0.02 0.02 0.01
-0.00 -0.00 -0.00 -0.00 -0.00 -0.00 -0.00 -0.00 0.00 0.00 0.00 0.00 0.00 0.00 0.00 0.00 0.00 0.00 -0.00 -0.00 -0.00 -0.00 -0.00 -0.00 -0.01 -0.01 -0.01 -0.01 -0.01 -0.01 -0.02 -0.02 -0.04 -0.04 -0.04 -0.04 -0.04 -0.03 -0.03 -0.02 -0.02 -0.02 -0.02 -0.04 -0.09 -0.09 -0.15 -0.15 -0.08 -0.08 -0.07 -0.07 -0.07 -0.07 -0.10 -0.17 -0.17 -0.27 -0.33 -0.27 -0.27 -0.48 -0.61 -0.66 -0.92 -0.92 -1.06 -0.95 -0.78 -0.78 -0.84 -0.69 -0.64 -0.64 -0.56 -0.55 -0.55 -0.58 -0.49 -0.42 -0.42 -0.20 -0.13 -0.11 -0.01 -0.01 -0.00 -0.05 -0.03 -0.03 -0.01 0.00 -0.00 -0.00 -0.01 -0.02 -0.02 -0.02 0.00 0.01 0.01 0.02 0.02
-0.00 -0.00 -0.00 -0.00 -0.00 -0.00 -0.00 0.00 0.00 0.00 -0.00 -0.00 -0.00 -0.00 -0.00 0.00 0.00 -0.00 -0.00 -0.00 -0.00 -0.00 -0.01 -0.01 -0.01 -0.01 -0.01 -0.01 -0.01 -0.01 -0.02 -0.02 -0.03 -0.03 -0.02 -0.02 -0.02 -0.03 -0.03 -0.02 -0.02 -0.02 -0.02 -0.03 -0.05 -0.05 -0.13 -0.14 -0.08 -0.08 -0.08 -0.08 -0.07 -0.07 -0.07 -0.13 -0.13 -0.19 -0.21 -0.14 -0.14 -0.21 -0.50 -0.63 -0.68 -0.68 -0.82 -1.00 -1.05 -1.05 -1.19 -0.82 -0.70 -0.70 -0.64 -0.51 -0.51 -0.55 -0.54 -0.47 -0.47 -0.38 -0.18 -0.13 -0.07 -0.07 -0.02 -0.02 -0.03 -0.03 -0.01 -0.01 0.00 0.00 -0.00 -0.01 -0.01 -0.01 -0.01 0.00 0.00 0.01 0.02
-0.00 -0.00 -0.00 -0.00 -0.00 -0.00 0.00 0.00 0.00 0.00 0.00 -0.00 0.00 0.00 -0.00 -0.00 -0.00 -0.00 -0.00 -0.01 -0.01 -0.01 -0.01 -0.01 -0.01 -0.01 -0.01 -0.01 -0.01 -0.01 -0.01 -0.01 -0.02 -0.02 -0.01 -0.01 -0.01 -0.02 -0.02 -0.02 -0.02 -0.02 -0.02 -0.03 -0.04 -0.04 -0.08 -0.08 -0.08 -0.08 -0.08 -0.09 -0.08 -0.08 -0.09 -0.11 -0.11 -0.14 -0.15 -0.10 -0.10 -0.11 -0.29 -0.52 -0.62 -0.62 -0.66 -0.72 -1.13 -1.13 -1.07 -1.20 -0.90 -0.90 -0.72 -0.68 -0.68 -0.58 -0.60 -0.46 -0.46 -0.42 -0.31 -0.18 -0.12 -0.12 -0.04 -0.06 -0.06 -0.06 -0.01 -0.01 0.00 0.00 -0.00 -0.01 -0.01 -0.01 -0.01 -0.01 -0.01 0.01 0.02
-0.00 -0.00 -0.00 0.00 0.00 0.00 0.00 0.00 0.00 0.00 0.00 0.00 0.00 0.00 0.00 0.00 0.00 -0.00 -0.00 -0.01 -0.01 -0.01 -0.01 -0.01 -0.01 -0.01 -0.01 -0.01 -0.01 -0.01 -0.01 -0.01 -0.01 -0.01 -0.01 -0.01 -0.01 -0.01 -0.01 -0.01 -0.01 -0.01 -0.02 -0.03 -0.04 -0.04 -0.05 -0.07 -0.08 -0.08 -0.08 -0.08 -0.10 -0.10 -0.14 -0.11 -0.11 -0.10 -0.10 -0.11 -0.11 -0.09 -0.08 -0.37 -0.46 -0.46 -0.80 -0.64 -0.62 -0.62 -0.68 -0.96 -1.20 -1.20 -1.35 -1.23 -1.23 -0.76 -0.66 -0.61 -0.61 -0.46 -0.34 -0.21 -0.15 -0.15 -0.09 -0.05 -0.07 -0.07 -0.05 -0.02 -0.00 -0.00 0.00 -0.01 -0.01 -0.02 -0.02 -0.02 -0.02 -0.02 0.01
-0.00 -0.00 -0.00 0.00 0.00 0.00 0.00 0.00 0.00 0.00 0.00 0.00 0.00 0.00 0.00 0.00 0.00 0.00 0.00 -0.00 -0.00 -0.00 -0.01 -0.00 -0.01 -0.01 -0.01 -0.01 -0.01 -0.01 -0.01 -0.01 -0.00 -0.00 -0.00 -0.00 -0.00 -0.00 -0.00 -0.01 -0.01 -0.02 -0.02 -0.02 -0.03 -0.03 -0.04 -0.07 -0.08 -0.08 -0.07 -0.08 -0.10 -0.10 -0.12 -0.12 -0.12 -0.08 -0.08 -0.10 -0.10 -0.11 -0.08 -0.28 -0.46 -0.46 -0.62 -0.75 -0.57 -0.57 -0.53 -0.59 -0.92 -0.92 -1.17 -1.32 -1.32 -1.33 -0.87 -0.86 -0.86 -0.60 -0.41 -0.35 -0.18 -0.18 -0.12 -0.05 -0.04 -0.04 -0.08 -0.07 -0.01 -0.01 0.00 -0.00 -0.00 -0.02 -0.02 -0.02 -0.02 -0.02 -0.01
-0.00 -0.00 -0.00 0.00 0.00 0.00 0.00 0.00 0.00 0.00 0.00 0.00 0.00 0.00 0.00 0.00 0.00 0.00 0.00 0.00 0.00 -0.00 -0.00 -0.00 -0.00 -0.00 -0.00 -0.00 -0.01 -0.01 -0.01 -0.01 -0.00 -0.00 -0.00 -0.00 -0.00 -0.00 -0.00 -0.00 -0.00 -0.01 -0.03 -0.03 -0.04 -0.04 -0.05 -0.08 -0.09 -0.09 -0.09 -0.08 -0.10 -0.10 -0.12 -0.11 -0.11 -0.09 -0.07 -0.14 -0.14 -0.21 -0.22 -0.25 -0.53 -0.53 -0.55 -0.69 -0.70 -0.70 -0.70 -0.52 -0.63 -0.63 -0.67 -1.12 -1.12 -1.33 -1.36 -1.06 -1.06 -0.84 -0.47 -0.46 -0.28 -0.28 -0.15 -0.14 -0.11 -0.11 -0.10 -0.08 -0.05 -0.05 -0.01 -0.01 -0.01 -0.00 -0.02 -0.02 -0.02 -0.03 -0.00
-0.00 -0.00 -0.00 -0.00 0.00 0.00 0.00 0.00 0.00 0.00 0.00 0.00 0.00 0.00 0.00 0.00 0.00 0.00 0.00 0.00 0.00 0.00 -0.00 0.00 0.00 0.00 -0.00 -0.00 -0.00 -0.00 -0.01 -0.01 -0.00 -0.00 -0.00 -0.00 -0.00 -0.00 -0.00 -0.00 -0.00 -0.01 -0.03 -0.03 -0.04 -0.04 -0.05 -0.06 -0.08 -0.08 -0.10 -0.09 -0.09 -0.09 -0.09 -0.10 -0.10 -0.08 -0.07 -0.15 -0.15 -0.28 -0.39 -0.40 -0.64 -0.64 -0.57 -0.61 -0.83 -0.83 -0.79 -0.72 -0.50 -0.50 -0.53 -0.70 -0.70 -1.12 -1.30 -1.13 -1.13 -0.97 -0.82 -0.59 -0.42 -0.42 -0.25 -0.16 -0.14 -0.14 -0.13 -0.09 -0.08 -0.08 -0.03 -0.03 -0.03 -0.01 -0.01 -0.01 -0.01 -0.01 -0.01
0.00 0.00 0.00 0.00 0.00 0.00 0.00 0.00 0.00 0.00 0.00 0.00 0.00 0.00 0.00 0.00 0.00 0.00 0.00 0.00 0.00 0.00 0.00 0.00 0.00 0.00 0.00 0.00 0.00 0.00 -0.00 0.00 0.00 0.00 0.00 0.00 0.00 0.00 0.00 0.00 0.00 -0.00 -0.01 -0.04 -0.05 -0.05 -0.06 -0.07 -0.06 -0.06 -0.05 -0.05 -0.04 -0.04 -0.06 -0.05 -0.05 -0.06 -0.07 -0.06 -0.06 -0.34 -0.58 -0.96 -1.15 -1.15 -0.89 -0.57 -0.54 -0.54 -0.50 -0.67 -0.69 -0.69 -0.78 -0.69 -0.69 -0.73 -0.93 -0.93 -0.93 -1.04 -0.90 -0.77 -0.65 -0.65 -0.50 -0.44 -0.36 -0.36 -0.20 -0.16 -0.05 -0.05 -0.04 -0.05 -0.05 -0.03 -0.02 -0.02 -0.02 -0.01 -0.00
-0.00 -0.00 -0.00 0.00 0.00 0.00 0.00 0.00 0.00 0.00 0.00 0.00 0.00 0.00 0.00 0.00 0.00 0.00 0.00 0.00 0.00 0.00 0.00 0.00 0.00 0.00 0.00 0.00 0.00 0.00 0.00 0.00 0.00 0.00 0.00 0.00 0.00 0.00 0.00 0.00 0.00 -0.00 -0.01 -0.04 -0.06 -0.06 -0.08 -0.09 -0.08 -0.08 -0.05 -0.04 -0.04 -0.04 -0.03 -0.03 -0.03 -0.04 -0.06 -0.05 -0.05 -0.25 -0.49 -0.81 -1.41 -1.41 -1.30 -0.91 -0.73 -0.73 -0.59 -0.58 -0.67 -0.67 -0.71 -0.92 -0.92 -0.84 -0.80 -0.81 -0.81 -0.91 -0.94 -0.75 -0.68 -0.68 -0.59 -0.42 -0.35 -0.35 -0.26 -0.19 -0.06 -0.06 -0.06 -0.07 -0.07 -0.03 -0.03 -0.02 -0.02 -0.01 -0.00
0.00 0.00 0.00 0.00 -0.00 -0.00 0.00 -0.00 0.00 0.00 0.00 0.00 0.00 0.00 0.00 0.00 0.00 0.00 0.00 0.00 0.00 0.00 0.00 0.00 0.00 0.00 0.00 0.00 0.00 0.00 0.00 0.00 0.00 0.00 0.00 0.00 0.00 0.00 0.00 0.00 0.00 -0.00 -0.01 -0.02 -0.05 -0.05 -0.06 -0.09 -0.08 -0.08 -0.07 -0.04 -0.04 -0.04 -0.03 -0.02 -0.02 -0.03 -0.03 -0.04 -0.04 -0.05 -0.34 -0.59 -0.88 -0.88 -1.58 -1.42 -1.04 -1.04 -0.84 -0.62 -0.62 -0.62 -0.68 -0.79 -0.79 -1.00 -0.92 -0.95 -0.95 -0.82 -0.86 -0.84 -0.65 -0.65 -0.62 -0.47 -0.32 -0.32 -0.26 -0.14 -0.09 -0.09 -0.09 -0.07 -0.07 -0.06 -0.05 -0.02 -0.02 -0.01 -0.01
0.00 0.00 0.00 0.00 0.00 0.00 0.00 0.00 0.00 0.00 0.00 0.00 0.00 0.00 0.00 0.00 0.00 0.00 0.00 0.00 0.00 0.00 0.00 0.00 0.00 0.00 0.00 0.00 0.00 0.00 0.00 0.00 0.00 0.00 0.00 0.00 0.00 0.00 0.00 0.00 0.00 0.00 -0.01 -0.01 -0.04 -0.04 -0.05 -0.08 -0.09 -0.09 -0.08 -0.07 -0.05 -0.05 -0.04 -0.02 -0.02 -0.02 -0.02 -0.03 -0.03 -0.04 -0.07 -0.30 -0.65 -0.65 -1.43 -1.61 -1.64 -1.64 -1.14 -0.88 -0.68 -0.68 -0.82 -0.87 -0.87 -0.96 -0.99 -1.03 -1.03 -0.95 -0.79 -0.84 -0.58 -0.58 -0.60 -0.56 -0.35 -0.35 -0.24 -0.15 -0.10 -0.10 -0.13 -0.15 -0.15 -0.05 -0.04 -0.02 -0.02 -0.00 -0.00
0.00 0.00 0.00 0.00 0.00 0.00 -0.00 0.00 -0.00 -0.00 0.00 0.00 0.00 0.00 0.00 0.00 0.00 0.00 0.00 0.00 0.00 0.00 0.00 0.00 0.00 0.00 0.00 0.00 0.00 0.00 0.00 0.00 0.00 0.00 0.00 0.00 0.00 0.00 0.00 0.00 0.00 0.00 -0.00 -0.01 -0.02 -0.02 -0.07 -0.10 -0.12 -0.12 -0.11 -0.09 -0.09 -0.09 -0.05 -0.04 -0.04 -0.02 -0.03 -0.03 -0.03 -0.03 -0.05 -0.17 -0.35 -0.35 -0.70 -1.45 -1.40 -1.40 -1.53 -1.17 -0.89 -0.89 -0.95 -0.95 -0.95 -1.00 -1.03 -0.97 -0.97 -0.96 -0.81 -0.90 -0.75 -0.75 -0.63 -0.57 -0.50 -0.50 -0.24 -0.15 -0.09 -0.09 -0.13 -0.15 -0.15 -0.12 -0.04 0.00 0.00 -0.00 -0.00
0.00 0.00 0.00 0.00 -0.00 -0.00 0.00 0.00 0.00 0.00 0.00 0.00 0.00 0.00 0.00 0.00 0.00 0.00 0.00 0.00 0.00 0.00 0.00 0.00 0.00 0.00 0.00 0.00 0.00 0.00 0.00 0.00 0.00 0.00 0.00 0.00 0.00 0.00 0.00 0.01 0.01 0.00 0.00 -0.01 -0.02 -0.02 -0.07 -0.11 -0.16 -0.16 -0.14 -0.12 -0.12 -0.12 -0.07 -0.06 -0.06 -0.04 -0.04 -0.03 -0.03 -0.02 -0.03 -0.08 -0.30 -0.30 -0.42 -0.67 -1.03 -1.03 -1.32 -1.25 -1.17 -1.17 -1.18 -0.98 -0.98 -1.10 -1.08 -0.96 -0.96 -0.86 -0.84 -0.94 -0.80 -0.80 -0.61 -0.58 -0.48 -0.48 -0.37 -0.15 -0.10 -0.10 -0.07 -0.10 -0.10 -0.10 -0.07 -0.01 -0.01 0.00 0.00
-0.00 0.00 -0.00 -0.00 0.00 0.00 0.00 0.00 0.00 0.00 0.00 0.00 0.00 0.00 0.00 -0.00 -0.00 0.00 0.00 0.00 0.00 0.00 0.00 0.00 0.00 0.00 0.00 0.00 0.00 0.00 0.00 0.00 0.00 0.00 0.00 0.00 0.00 0.00 0.00 0.00 0.00 0.00 0.00 -0.01 -0.02 -0.02 -0.03 -0.11 -0.17 -0.17 -0.16 -0.14 -0.14 -0.14 -0.08 -0.07 -0.07 -0.06 -0.06 -0.05 -0.05 -0.04 -0.05 -0.09 -0.30 -0.30 -0.36 -0.48 -0.77 -0.77 -1.05 -1.09 -1.19 -1.19 -1.14 -1.11 -1.11 -1.06 -1.01 -0.99 -0.99 -0.87 -0.73 -0.72 -0.89 -0.89 -0.76 -0.75 -0.48 -0.48 -0.35 -0.23 -0.10 -0.10 -0.10 -0.10 -0.10 -0.09 -0.07 -0.02 -0.02 -0.00 0.00
-0.00 -0.00 -0.00 -0.00 0.00 0.00 0.00 0.00 0.00 0.00 0.00 0.00 0.00 0.00 0.00 -0.00 -0.00 0.00 0.00 0.00 0.00 0.00 0.00 0.00 0.00 0.00 0.00 0.00 0.00 0.00 0.00 0.00 0.00 0.00 0.00 0.00 0.00 0.00 0.00 0.00 0.00 0.00 0.00 0.00 -0.01 -0.01 -0.02 -0.08 -0.12 -0.12 -0.17 -0.15 -0.13 -0.13 -0.12 -0.07 -0.07 -0.07 -0.07 -0.06 -0.06 -0.06 -0.08 -0.11 -0.14 -0.14 -0.32 -0.40 -0.50 -0.50 -0.87 -0.97 -1.05 -1.05 -1.05 -0.99 -0.99 -1.05 -1.05 -1.06 -1.06 -0.87 -0.72 -0.69 -0.77 -0.77 -0.83 -0.74 -0.64 -0.64 -0.40 -0.31 -0.13 -0.13 -0.07 -0.08 -0.08 -0.11 -0.05 -0.01 -0.01 -0.00 0.00
-0.00 -0.00 -0.00 0.00 0.00 0.00 0.00 0.00 0.00 0.00 0.00 0.00 0.00 0.00 0.00 0.00 0.00 0.00 0.00 0.00 0.00 0.00 0.00 0.00 0.00 0.00 0.00 0.00 0.00 0.00 0.00 0.00 0.00 0.00 0.00 0.00 0.00 0.00 0.00 0.00 0.00 0.00 0.00 0.00 -0.01 -0.01 -0.01 -0.04 -0.11 -0.11 -0.14 -0.16 -0.12 -0.12 -0.11 -0.10 -0.10 -0.08 -0.12 -0.10 -0.10 -0.10 -0.09 -0.13 -0.14 -0.14 -0.31 -0.38 -0.49 -0.49 -0.63 -0.94 -0.97 -0.97 -0.99 -0.95 -0.95 -1.03 -1.01 -1.12 -1.12 -0.97 -0.83 -0.68 -0.69 -0.69 -0.69 -0.68 -0.61 -0.61 -0.58 -0.47 -0.23 -0.23 -0.09 -0.06 -0.06 -0.10 -0.11 -0.01 -0.01 -0.01 0.00
-0.00 -0.00 0.00 0.00 0.00 0.00 0.00 -0.00 -0.00 -0.00 0.00 0.00 0.00 0.00 0.00 0.00 0.00 0.00 0.00 0.00 0.00 -0.00 -0.00 0.00 0.00 0.00 0.00 0.00 0.00 0.00 0.00 0.00 0.00 0.00 -0.00 0.00 0.00 -0.00 0.00 0.00 0.00 0.00 0.00 0.00 -0.01 -0.01 -0.01 -0.02 -0.09 -0.09 -0.15 -0.16 -0.12 -0.12 -0.11 -0.09 -0.09 -0.14 -0.18 -0.17 -0.17 -0.14 -0.13 -0.21 -0.18 -0.18 -0.26 -0.34 -0.48 -0.48 -0.63 -0.75 -0.98 -0.98 -0.99 -1.00 -1.00 -1.05 -1.07 -1.04 -1.04 -1.00 -0.87 -0.80 -0.73 -0.73 -0.61 -0.47 -0.53 -0.53 -0.59 -0.72 -0.38 -0.38 -0.16 -0.11 -0.11 -0.11 -0.09 -0.04 -0.04 -0.01 -0.01
-0.00 -0.00 -0.00 -0.00 -0.01 -0.01 -0.00 -0.00 -0.00 -0.00 -0.00 0.00 0.00 0.00 0.00 0.00 0.00 0.00 0.00 -0.00 -0.00 -0.00 -0.00 0.00 0.00 0.00 0.00 0.00 0.00 0.00 0.00 0.00 0.00 0.00 0.00 0.00 0.00 0.00 0.00 0.00 0.00 0.00 0.00 0.00 0.00 0.00 -0.01 -0.02 -0.04 -0.04 -0.12 -0.14 -0.17 -0.17 -0.11 -0.10 -0.10 -0.14 -0.23 -0.22 -0.22 -0.20 -0.15 -0.27 -0.23 -0.23 -0.24 -0.37 -0.52 -0.52 -0.62 -0.73 -0.96 -0.96 -1.01 -0.98 -0.98 -1.10 -1.06 -1.09 -1.09 -0.95 -0.85 -0.76 -0.81 -0.81 -0.62 -0.50 -0.38 -0.38 -0.52 -0.66 -0.77 -0.77 -0.25 -0.14 -0.14 -0.07 -0.05 -0.01 -0.01 -0.01 0.00
-0.00 -0.00 -0.00 -0.00 -0.00 -0.00 -0.00 -0.00 -0.00 -0.00 -0.00 0.00 0.00 0.00 0.00 0.00 0.00 -0.00 -0.00 -0.00 -0.00 -0.00 0.00 0.00 0.00 0.00 0.00 0.00 0.00 0.00 0.00 0.00 0.00 0.00 0.00 0.00 0.00 0.00 0.00 0.00 0.00 0.00 0.00 0.00 0.00 0.00 -0.00 -0.02 -0.03 -0.03 -0.11 -0.12 -0.14 -0.14 -0.12 -0.14 -0.14 -0.20 -0.28 -0.30 -0.30 -0.29 -0.23 -0.28 -0.27 -0.27 -0.30 -0.35 -0.49 -0.49 -0.65 -0.75 -0.80 -0.80 -0.97 -0.94 -0.94 -0.96 -1.07 -1.10 -1.10 -1.13 -0.79 -0.72 -0.76 -0.76 -0.72 -0.55 -0.34 -0.34 -0.33 -0.55 -0.72 -0.72 -0.61 -0.17 -0.17 -0.09 -0.05 -0.01 -0.01 -0.01 0.00
-0.01 -0.01 -0.01 -0.00 -0.00 -0.00 -0.00 -0.00 -0.00 -0.00 0.00 0.00 0.00 0.00 0.00 0.00 0.00 -0.00 -0.00 -0.00 -0.00 -0.00 0.00 0.00 0.00 0.00 0.00 0.00 0.00 0.00 0.00 0.00 0.00 0.00 0.00 0.00 0.00 0.00 0.00 0.00 0.00 0.00 -0.00 0.00 0.00 0.00 0.00 -0.03 -0.04 -0.04 -0.06 -0.10 -0.11 -0.11 -0.13 -0.17 -0.17 -0.20 -0.26 -0.34 -0.34 -0.35 -0.33 -0.33 -0.32 -0.32 -0.32 -0.42 -0.51 -0.51 -0.59 -0.74 -0.76 -0.76 -0.87 -0.88 -0.88 -0.91 -0.98 -1.06 -1.06 -1.14 -1.02 -0.73 -0.73 -0.73 -0.84 -0.67 -0.42 -0.42 -0.28 -0.26 -0.60 -0.60 -0.59 -0.37 -0.37 -0.11 -0.05 -0.01 -0.01 -0.00 0.00
-0.01 -0.01 -0.01 -0.01 -0.01 -0.01 -0.01 -0.00 -0.00 -0.00 0.00 0.00 0.00 0.00 0.00 -0.00 -0.00 -0.00 0.00 0.00 0.00 0.00 0.00 0.00 0.00 0.00 0.00 0.00 0.00 0.00 0.00 0.00 0.00 0.00 0.00 0.00 0.00 0.00 0.00 0.00 0.00 0.00 0.00 -0.00 -0.00 -0.00 -0.00 -0.00 -0.04 -0.04 -0.05 -0.09 -0.10 -0.10 -0.13 -0.18 -0.18 -0.20 -0.26 -0.31 -0.31 -0.39 -0.38 -0.40 -0.37 -0.37 -0.36 -0.42 -0.53 -0.53 -0.61 -0.66 -0.75 -0.75 -0.85 -0.95 -0.95 -0.85 -0.91 -0.98 -0.98 -1.12 -1.08 -0.84 -0.73 -0.73 -0.83 -0.96 -0.50 -0.50 -0.31 -0.28 -0.32 -0.32 -0.55 -0.37 -0.37 -0.19 -0.07 -0.04 -0.04 -0.01 -0.00
-0.02 -0.02 -0.02 -0.01 -0.01 -0.01 -0.01 -0.01 -0.00 -0.00 -0.00 -0.00 -0.00 -0.00 -0.00 -0.00 -0.00 0.00 0.00 0.01 0.01 0.01 0.01 0.01 0.00 0.00 0.00 0.00 0.00 0.00 0.00 0.00 0.00 0.00 0.00 0.00 0.00 0.00 0.00 0.00 0.00 -0.00 -0.00 -0.01 -0.01 -0.01 -0.00 -0.01 -0.03 -0.03 -0.04 -0.07 -0.10 -0.10 -0.11 -0.15 -0.15 -0.16 -0.23 -0.26 -0.26 -0.31 -0.31 -0.37 -0.42 -0.42 -0.38 -0.42 -0.53 -0.53 -0.63 -0.69 -0.74 -0.74 -0.82 -0.91 -0.91 -0.80 -0.86 -0.99 -0.99 -1.08 -1.16 -0.93 -0.79 -0.79 -0.83 -0.98 -0.91 -0.91 -0.36 -0.31 -0.30 -0.30 -0.34 -0.28 -0.28 -0.18 -0.10 -0.04 -0.04 -0.02 -0.00
-0.01 -0.01 -0.01 -0.01 -0.01 -0.01 -0.01 -0.00 -0.00 -0.00 -0.00 -0.00 -0.00 -0.00 -0.00 0.00 0.00 0.00 0.00 0.00 0.00 0.01 0.01 0.01 0.00 0.00 0.00 0.00 0.00 0.00 0.00 -0.00 0.00 0.00 0.00 0.00 0.00 0.00 0.00 0.00 0.00 0.00 -0.00 -0.00 -0.00 -0.00 -0.01 -0.01 -0.02 -0.02 -0.05 -0.06 -0.08 -0.08 -0.12 -0.13 -0.13 -0.12 -0.16 -0.18 -0.18 -0.20 -0.21 -0.29 -0.35 -0.35 -0.44 -0.42 -0.42 -0.42 -0.64 -0.70 -0.80 -0.80 -0.80 -0.89 -0.89 -0.77 -0.76 -0.89 -0.89 -1.10 -1.27 -0.95 -0.82 -0.82 -0.79 -0.97 -0.98 -0.98 -0.72 -0.36 -0.32 -0.32 -0.31 -0.25 -0.25 -0.12 -0.08 -0.02 -0.02 -0.02 -0.00
0.00 -0.00 -0.00 -0.01 -0.01 -0.01 -0.01 -0.00 -0.00 -0.00 0.00 -0.00 -0.00 -0.00 -0.00 0.00 0.00 0.00 0.00 0.00 0.00 0.00 0.00 0.00 0.00 0.00 -0.00 -0.00 -0.00 -0.00 -0.00 -0.00 0.00 0.00 -0.00 -0.00 -0.00 0.00 0.00 0.00 0.00 0.00 0.00 0.00 -0.00 -0.00 -0.00 -0.01 -0.02 -0.02 -0.06 -0.06 -0.06 -0.06 -0.10 -0.10 -0.10 -0.10 -0.15 -0.15 -0.15 -0.14 -0.17 -0.18 -0.27 -0.27 -0.36 -0.37 -0.40 -0.40 -0.46 -0.71 -0.79 -0.79 -0.78 -0.88 -0.88 -0.75 -0.70 -0.86 -0.86 -1.11 -1.26 -0.98 -0.85 -0.85 -0.78 -0.83 -1.06 -1.06 -0.84 -0.58 -0.33 -0.33 -0.31 -0.25 -0.25 -0.15 -0.04 -0.01 -0.01 -0.01 -0.00
0.00 -0.01 -0.01 -0.01 -0.01 -0.01 -0.00 -0.00 -0.00 -0.00 -0.00 -0.00 -0.00 -0.00 -0.00 -0.00 -0.00 -0.00 -0.00 -0.00 -0.00 -0.00 0.00 0.00 -0.00 -0.00 -0.01 -0.01 -0.01 -0.01 -0.01 -0.00 -0.00 -0.00 -0.00 0.00 0.00 0.00 0.00 0.00 0.00 0.00 0.00 -0.00 0.00 0.00 -0.00 -0.00 -0.01 -0.01 -0.05 -0.08 -0.05 -0.05 -0.06 -0.08 -0.08 -0.09 -0.13 -0.13 -0.13 -0.11 -0.09 -0.14 -0.17 -0.17 -0.24 -0.32 -0.33 -0.33 -0.37 -0.57 -0.79 -0.79 -0.81 -0.78 -0.78 -0.81 -0.77 -0.80 -0.80 -1.14 -1.20 -1.27 -0.94 -0.94 -0.81 -0.89 -0.97 -0.97 -0.91 -0.66 -0.42 -0.42 -0.32 -0.29 -0.29 -0.16 -0.07 -0.00 -0.00 -0.00 0.00
-0.00 -0.01 -0.01 -0.01 -0.01 -0.01 -0.01 -0.01 -0.00 -0.00 -0.00 -0.00 0.00 0.00 0.00 0.00 0.00 0.00 -0.00 0.00 0.00 0.00 0.00 -0.00 0.00 0.00 0.00 0.01 0.01 0.01 0.00 -0.00 -0.00 -0.00 -0.00 0.00 0.00 0.00 0.00 0.00 0.00 -0.00 -0.00 0.00 0.00 0.00 0.00 0.00 -0.01 -0.01 -0.04 -0.08 -0.06 -0.06 -0.05 -0.06 -0.06 -0.10 -0.13 -0.15 -0.15 -0.11 -0.09 -0.08 -0.10 -0.10 -0.17 -0.21 -0.28 -0.28 -0.30 -0.43 -0.76 -0.76 -0.79 -0.80 -0.80 -0.86 -0.88 -0.87 -0.87 -0.92 -1.13 -1.26 -1.13 -1.13 -0.92 -0.91 -0.98 -0.98 -1.06 -0.68 -0.46 -0.46 -0.39 -0.33 -0.33 -0.20 -0.08 -0.01 -0.01 0.00 0.00
0.00 0.00 -0.00 -0.00 -0.00 -0.00 -0.01 -0.00 -0.00 -0.00 -0.00 -0.00 0.00 0.00 0.00 0.01 0.01 0.01 0.01 0.00 0.00 0.00 0.00 0.00 0.01 0.01 0.01 0.01 0.00 0.00 -0.00 0.00 0.00 0.00 0.00 0.00 0.00 0.00 0.00 0.00 0.00 0.00 0.00 0.00 0.00 0.00 0.00 0.00 -0.00 -0.00 -0.06 -0.12 -0.10 -0.10 -0.09 -0.13 -0.13 -0.15 -0.17 -0.17 -0.17 -0.15 -0.13 -0.09 -0.09 -0.09 -0.12 -0.21 -0.27 -0.27 -0.28 -0.36 -0.42 -0.42 -0.78 -0.81 -0.81 -0.87 -0.89 -0.85 -0.85 -0.90 -0.98 -1.23 -1.13 -1.13 -1.01 -0.88 -0.97 -0.97 -1.06 -0.99 -0.51 -0.51 -0.44 -0.44 -0.44 -0.42 -0.11 -0.02 -0.02 0.00 0.00
0.02 0.02 0.03 0.03 0.02 0.02 0.01 0.00 0.00 0.00 0.00 0.01 0.01 0.01 0.01 0.02 0.02 0.01 0.00 0.00 0.00 0.01 0.01 0.01 0.02 0.02 0.01 0.01 -0.00 -0.00 -0.00 -0.00 -0.00 -0.00 0.00 0.00 0.00 0.00 0.00 0.00 0.00 0.00 0.00 0.00 0.00 0.00 0.00 0.00 0.00 0.00 -0.05 -0.11 -0.15 -0.15 -0.17 -0.19 -0.19 -0.19 -0.22 -0.23 -0.23 -0.21 -0.18 -0.12 -0.12 -0.12 -0.13 -0.20 -0.31 -0.31 -0.26 -0.37 -0.46 -0.46 -0.55 -0.73 -0.73 -0.84 -0.88 -0.80 -0.80 -0.84 -0.94 -1.07 -1.11 -1.11 -0.98 -0.86 -0.96 -0.96 -1.09 -1.01 -0.74 -0.74 -0.51 -0.54 -0.54 -0.52 -0.38 -0.02 -0.02 0.00 0.00
0.02 0.02 0.01 0.01 0.01 0.01 0.00 -0.00 -0.00 -0.00 0.00 0.06 0.06 0.06 0.06 0.04 0.04 0.00 0.00 0.00 0.00 0.01 0.02 0.02 0.02 0.02 0.01 0.00 0.00 0.00 0.00 0.00 0.00 0.00 0.00 0.00 0.00 0.00 0.00 0.00 0.00 0.00 0.00 0.00 0.00 0.00 0.00 0.00 0.00 0.00 -0.04 -0.10 -0.14 -0.14 -0.18 -0.18 -0.18 -0.22 -0.27 -0.32 -0.32 -0.29 -0.29 -0.17 -0.13 -0.13 -0.13 -0.17 -0.25 -0.25 -0.30 -0.39 -0.47 -0.47 -0.56 -0.66 -0.66 -0.75 -0.89 -0.72 -0.72 -0.76 -0.84 -1.00 -1.13 -1.13 -0.99 -0.84 -0.83 -0.83 -1.11 -1.10 -0.75 -0.75 -0.55 -0.57 -0.57 -0.55 -0.43 -0.20 -0.20 0.01 0.01
0.00 0.00 -0.00 0.00 0.00 0.00 -0.00 -0.00 0.01 0.01 0.13 0.13 0.09 0.09 0.00 0.00 0.00 0.00 0.01 0.02 0.02 0.02 0.02 0.01 0.02 0.02 -0.00 -0.01 -0.01 -0.01 0.00 0.00 0.01 0.01 -0.00 -0.00 -0.00 -0.00 0.00 0.00 0.00 0.00 -0.00 -0.00 -0.00 -0.00 0.00 -0.00 -0.00 -0.00 -0.00 -0.11 -0.13 -0.13 -0.14 -0.14 -0.14 -0.20 -0.25 -0.41 -0.41 -0.37 -0.36 -0.32 -0.22 -0.22 -0.18 -0.20 -0.22 -0.22 -0.26 -0.31 -0.52 -0.52 -0.61 -0.67 -0.67 -0.65 -0.84 -0.67 -0.67 -0.63 -0.73 -0.87 -1.04 -1.04 -0.95 -0.88 -0.80 -0.80 -0.95 -1.13 -0.84 -0.84 -0.60 -0.50 -0.50 -0.54 -0.42 -0.18 -0.18 -0.03 0.01
-0.02 -0.02 -0.01 -0.01 -0.01 -0.01 0.02 0.06 0.02 0.02 -0.01 -0.01 -0.01 -0.01 -0.01 -0.00 -0.00 0.01 0.03 0.04 0.04 0.03 0.00 0.00 0.00 0.00 0.01 0.00 -0.00 -0.00 0.01 -0.01 -0.01 -0.01 -0.00 -0.01 -0.01 -0.01 -0.02 -0.02 -0.02 -0.01 -0.02 -0.02 -0.02 -0.02 -0.02 -0.02 -0.00 -0.00 -0.00 -0.02 -0.12 -0.12 -0.14 -0.12 -0.12 -0.14 -0.27 -0.40 -0.40 -0.44 -0.40 -0.41 -0.38 -0.38 -0.26 -0.21 -0.19 -0.19 -0.20 -0.25 -0.37 -0.37 -0.63 -0.82 -0.82 -0.91 -0.85 -0.91 -0.91 -0.56 -0.53 -0.55 -0.72 -0.72 -0.66 -0.76 -0.80 -0.80 -0.82 -1.01 -1.13 -1.13 -1.00 -0.68 -0.68 -0.47 -0.42 -0.30 -0.30 -0.07 -0.00
-0.03 -0.01 0.01 0.02 0.03 0.03 0.06 0.05 0.01 0.01 -0.01 -0.01 -0.01 -0.01 -0.01 -0.00 -0.00 0.00 0.00 0.01 0.01 0.00 -0.00 -0.00 0.00 0.00 0.01 0.03 0.02 0.02 0.01 -0.01 -0.01 -0.01 -0.01 -0.00 -0.00 -0.00 -0.01 -0.01 -0.01 -0.03 -0.02 -0.02 -0.01 -0.01 -0.00 -0.00 -0.01 -0.01 -0.01 -0.02 -0.07 -0.07 -0.14 -0.11 -0.11 -0.11 -0.27 -0.39 -0.39 -0.42 -0.36 -0.41 -0.37 -0.37 -0.34 -0.24 -0.18 -0.18 -0.19 -0.24 -0.31 -0.31 -0.58 -0.80 -0.80 -1.08 -0.97 -1.06 -1.06 -0.79 -0.52 -0.48 -0.53 -0.53 -0.59 -0.64 -0.67 -0.67 -0.78 -1.05 -1.11 -1.11 -0.97 -0.83 -0.83 -0.62 -0.45 -0.38 -0.38 -0.23 -0.02
-0.03 -0.02 0.00 0.01 0.03 0.03 0.03 0.01 0.01 0.01 -0.00 -0.01 -0.01 -0.01 -0.00 -0.01 -0.01 -0.01 -0.01 -0.00 -0.00 -0.00 -0.01 0.00 0.01 0.01 0.02 0.02 0.01 0.01 0.00 -0.00 -0.02 -0.02 -0.04 -0.06 -0.06 -0.06 -0.06 -0.05 -0.05 -0.03 -0.02 -0.02 -0.01 -0.01 -0.01 -0.01 -0.02 -0.02 -0.04 -0.04 -0.07 -0.07 -0.10 -0.09 -0.09 -0.10 -0.13 -0.39 -0.39 -0.38 -0.35 -0.37 -0.40 -0.40 -0.37 -0.33 -0.22 -0.22 -0.20 -0.22 -0.34 -0.34 -0.56 -0.81 -0.81 -1.08 -1.12 -1.19 -1.19 -0.93 -0.80 -0.49 -0.48 -0.48 -0.61 -0.53 -0.58 -0.58 -0.70 -0.72 -1.13 -1.13 -0.94 -0.80 -0.80 -0.79 -0.59 -0.52 -0.52 -0.30 -0.15
-0.01 -0.00 0.02 0.03 0.05 0.05 0.05 0.01 0.01 0.01 0.01 0.02 0.01 0.01 0.01 -0.02 -0.02 -0.02 -0.01 -0.01 -0.01 -0.01 -0.01 0.02 0.02 0.02 0.01 0.00 0.00 0.00 -0.00 -0.01 -0.01 -0.01 -0.03 -0.05 -0.05 -0.05 -0.05 -0.04 -0.04 -0.02 -0.02 -0.02 -0.02 -0.02 -0.01 -0.02 -0.03 -0.03 -0.05 -0.05 -0.06 -0.06 -0.07 -0.08 -0.08 -0.11 -0.14 -0.35 -0.35 -0.31 -0.31 -0.31 -0.37 -0.37 -0.36 -0.35 -0.28 -0.28 -0.20 -0.20 -0.30 -0.30 -0.53 -0.83 -0.83 -0.99 -1.15 -1.27 -1.27 -1.09 -0.93 -0.60 -0.48 -0.48 -0.61 -0.54 -0.50 -0.50 -0.60 -0.70 -0.87 -0.87 -0.97 -0.79 -0.79 -0.74 -0.71 -0.67 -0.67 -0.39 -0.19
0.03 0.07 0.09 0.08 0.05 0.05 0.02 0.01 0.02 0.02 0.03 0.04 0.03 0.03 0.02 -0.01 -0.01 -0.01 -0.01 -0.01 -0.01 -0.02 -0.01 0.01 0.01 0.01 -0.00 -0.01 -0.01 -0.01 -0.01 -0.02 -0.01 -0.01 -0.03 -0.05 -0.05 -0.05 -0.03 -0.02 -0.02 -0.01 -0.01 -0.01 -0.02 -0.02 -0.02 -0.03 -0.03 -0.03 -0.04 -0.06 -0.07 -0.07 -0.07 -0.07 -0.07 -0.13 -0.13 -0.18 -0.18 -0.23 -0.26 -0.28 -0.29 -0.29 -0.33 -0.34 -0.28 -0.28 -0.21 -0.21 -0.26 -0.26 -0.40 -0.72 -0.72 -0.83 -1.03 -1.15 -1.15 -1.27 -1.19 -0.77 -0.52 -0.52 -0.60 -0.54 -0.42 -0.42 -0.42 -0.68 -0.79 -0.79 -1.11 -1.03 -1.03 -0.73 -0.61 -0.53 -0.53 -0.63 -0.24
0.05 0.04 0.02 0.02 0.02 0.02 0.02 0.01 0.01 0.01 0.02 0.02 0.01 0.01 0.01 0.01 0.01 -0.01 -0.02 -0.03 -0.03 -0.02 0.01 0.03 -0.03 -0.03 -0.03 -0.03 -0.02 -0.02 -0.02 -0.01 -0.01 -0.01 -0.04 -0.05 -0.05 -0.04 -0.03 -0.01 -0.01 -0.01 -0.00 -0.01 -0.02 -0.02 -0.04 -0.07 -0.04 -0.04 -0.04 -0.08 -0.07 -0.07 -0.08 -0.10 -0.10 -0.14 -0.11 -0.15 -0.15 -0.22 -0.17 -0.26 -0.26 -0.26 -0.22 -0.30 -0.26 -0.26 -0.21 -0.24 -0.25 -0.25 -0.34 -0.46 -0.46 -0.70 -0.94 -1.07 -1.07 -1.22 -1.39 -1.07 -0.61 -0.61 -0.76 -0.55 -0.39 -0.39 -0.34 -0.50 -0.74 -0.74 -1.02 -0.93 -0.93 -0.82 -0.53 -0.45 -0.45 -0.50 -0.36
0.01 -0.01 -0.02 -0.00 0.01 0.01 0.01 0.01 0.01 0.01 0.01 0.01 0.00 0.00 -0.00 -0.01 -0.01 -0.02 -0.02 -0.03 -0.03 0.01 0.01 -0.02 -0.04 -0.04 -0.05 -0.03 -0.02 -0.02 -0.01 -0.00 -0.01 -0.01 -0.05 -0.08 -0.08 -0.05 -0.02 -0.01 -0.01 -0.01 -0.01 -0.01 -0.03 -0.03 -0.05 -0.15 -0.06 -0.06 -0.06 -0.07 -0.09 -0.09 -0.12 -0.12 -0.12 -0.15 -0.11 -0.16 -0.16 -0.25 -0.18 -0.19 -0.24 -0.24 -0.22 -0.22 -0.23 -0.23 -0.20 -0.21 -0.29 -0.29 -0.32 -0.38 -0.38 -0.43 -0.78 -1.02 -1.02 -1.10 -1.15 -1.33 -0.98 -0.98 -1.20 -1.00 -0.41 -0.41 -0.36 -0.45 -0.56 -0.56 -0.95 -0.90 -0.90 -0.81 -0.70 -0.41 -0.41 -0.39 -0.30
-0.02 -0.03 -0.03 -0.00 0.00 0.00 0.00 0.00 0.01 0.01 0.01 0.01 0.02 0.02 0.02 -0.00 -0.00 -0.02 -0.02 -0.01 -0.01 0.01 -0.04 -0.07 -0.06 -0.06 -0.05 -0.03 -0.01 -0.01 0.00 0.00 -0.00 -0.00 -0.03 -0.07 -0.07 -0.06 -0.03 -0.02 -0.02 -0.02 -0.01 -0.01 -0.04 -0.04 -0.07 -0.18 -0.21 -0.21 -0.07 -0.09 -0.11 -0.11 -0.15 -0.17 -0.17 -0.20 -0.16 -0.17 -0.17 -0.27 -0.20 -0.08 -0.21 -0.21 -0.23 -0.22 -0.18 -0.18 -0.18 -0.23 -0.32 -0.32 -0.35 -0.36 -0.36 -0.39 -0.50 -0.94 -0.94 -0.99 -1.05 -1.15 -1.40 -1.40 -1.69 -1.56 -1.09 -1.09 -0.48 -0.48 -0.55 -0.55 -0.68 -0.84 -0.84 -0.84 -0.66 -0.46 -0.46 -0.30 -0.25
-0.04 -0.04 -0.03 -0.01 -0.00 -0.00 -0.00 -0.00 -0.00 -0.00 0.00 0.00 0.02 0.02 0.01 -0.01 -0.01 -0.02 -0.02 0.01 0.01 0.03 -0.07 -0.08 -0.06 -0.06 -0.04 -0.03 -0.01 -0.01 -0.00 -0.00 -0.00 -0.00 -0.05 -0.05 -0.05 -0.04 -0.04 -0.10 -0.10 -0.05 -0.03 -0.04 -0.04 -0.04 -0.10 -0.16 -0.20 -0.20 -0.15 -0.12 -0.11 -0.11 -0.18 -0.24 -0.24 -0.22 -0.17 -0.16 -0.16 -0.28 -0.25 -0.10 -0.14 -0.14 -0.20 -0.22 -0.20 -0.20 -0.17 -0.23 -0.30 -0.30 -0.35 -0.37 -0.37 -0.39 -0.48 -0.66 -0.66 -1.03 -1.06 -1.07 -1.34 -1.34 -1.71 -1.81 -1.68 -1.68 -1.20 -0.50 -0.53 -0.53 -0.59 -0.69 -0.69 -0.82 -0.63 -0.40 -0.40 -0.44 -0.28
-0.03 -0.04 -0.02 -0.01 -0.01 -0.01 -0.01 -0.02 -0.01 -0.01 -0.01 -0.00 -0.00 -0.00 -0.00 -0.02 -0.02 -0.02 -0.01 -0.01 -0.01 -0.01 -0.08 -0.09 -0.08 -0.08 -0.06 -0.03 -0.01 -0.01 -0.02 -0.01 -0.01 -0.01 -0.03 -0.04 -0.04 -0.03 -0.06 -0.16 -0.16 -0.17 -0.05 -0.07 -0.09 -0.09 -0.17 -0.16 -0.17 -0.17 -0.24 -0.19 -0.15 -0.15 -0.21 -0.24 -0.24 -0.23 -0.20 -0.17 -0.17 -0.26 -0.32 -0.16 -0.08 -0.08 -0.14 -0.23 -0.21 -0.21 -0.18 -0.22 -0.25 -0.25 -0.33 -0.41 -0.41 -0.44 -0.40 -0.57 -0.57 -0.72 -1.05 -1.05 -1.18 -1.18 -1.29 -1.65 -1.68 -1.68 -1.38 -0.86 -0.57 -0.57 -0.54 -0.65 -0.65 -0.74 -0.71 -0.43 -0.43 -0.47 -0.31
-0.03 -0.02 -0.01 -0.01 -0.02 -0.02 -0.02 -0.03 -0.02 -0.02 -0.01 -0.01 -0.02 -0.02 -0.03 -0.04 -0.04 -0.03 -0.03 -0.04 -0.04 -0.06 -0.09 -0.10 -0.12 -0.12 -0.10 -0.05 -0.03 -0.03 -0.04 -0.04 -0.03 -0.03 -0.03 -0.03 -0.03 -0.04 -0.18 -0.20 -0.20 -0.18 -0.10 -0.13 -0.12 -0.12 -0.15 -0.13 -0.15 -0.15 -0.17 -0.30 -0.29 -0.29 -0.22 -0.27 -0.27 -0.23 -0.21 -0.18 -0.18 -0.16 -0.34 -0.29 -0.15 -0.15 -0.14 -0.18 -0.20 -0.20 -0.19 -0.21 -0.21 -0.21 -0.28 -0.41 -0.41 -0.43 -0.43 -0.48 -0.48 -0.63 -0.80 -1.04 -1.13 -1.13 -1.28 -1.35 -1.47 -1.47 -1.38 -1.08 -0.80 -0.80 -0.61 -0.58 -0.58 -0.74 -0.72 -0.64 -0.64 -0.42 -0.37
0.00 -0.00 0.00 0.00 -0.02 -0.02 -0.03 -0.03 -0.03 -0.03 -0.01 -0.04 -0.06 -0.06 -0.06 -0.05 -0.05 -0.04 -0.02 -0.06 -0.06 -0.09 -0.13 -0.11 -0.14 -0.14 -0.15 -0.10 -0.05 -0.05 -0.06 -0.04 -0.07 -0.07 -0.06 -0.04 -0.04 -0.15 -0.21 -0.14 -0.14 -0.12 -0.10 -0.18 -0.15 -0.15 -0.11 -0.10 -0.12 -0.12 -0.12 -0.25 -0.28 -0.28 -0.26 -0.27 -0.27 -0.28 -0.20 -0.15 -0.15 -0.17 -0.20 -0.40 -0.25 -0.25 -0.16 -0.09 -0.19 -0.19 -0.18 -0.23 -0.26 -0.26 -0.27 -0.39 -0.39 -0.45 -0.50 -0.52 -0.52 -0.69 -0.69 -0.84 -1.17 -1.17 -1.21 -1.22 -1.42 -1.42 -1.39 -1.28 -1.02 -1.02 -0.81 -0.64 -0.64 -0.66 -0.73 -0.69 -0.69 -0.48 -0.43
-0.00 -0.00 -0.01 -0.01 -0.03 -0.03 -0.03 -0.03 -0.02 -0.02 -0.02 -0.04 -0.09 -0.09 -0.09 -0.06 -0.06 -0.03 -0.01 -0.07 -0.07 -0.11 -0.15 -0.17 -0.15 -0.15 -0.15 -0.11 -0.04 -0.04 -0.02 -0.01 -0.02 -0.02 -0.07 -0.07 -0.07 -0.20 -0.16 -0.15 -0.15 -0.18 -0.19 -0.17 -0.16 -0.16 -0.06 -0.08 -0.10 -0.10 -0.09 -0.20 -0.36 -0.36 -0.33 -0.33 -0.33 -0.31 -0.24 -0.16 -0.16 -0.17 -0.22 -0.32 -0.38 -0.38 -0.21 -0.08 -0.07 -0.07 -0.18 -0.22 -0.30 -0.30 -0.26 -0.40 -0.40 -0.49 -0.55 -0.56 -0.56 -0.75 -0.79 -0.85 -0.87 -0.87 -0.90 -1.10 -1.38 -1.38 -1.44 -1.48 -1.21 -1.21 -1.26 -0.91 -0.91 -0.65 -0.83 -0.70 -0.70 -0.46 -0.41
-0.01 -0.01 -0.02 -0.02 -0.03 -0.03 -0.04 -0.04 -0.04 -0.04 -0.03 -0.07 -0.12 -0.12 -0.13 -0.05 -0.05 -0.05 -0.04 -0.07 -0.07 -0.11 -0.15 -0.19 -0.15 -0.15 -0.14 -0.11 -0.10 -0.10 -0.05 -0.03 -0.02 -0.02 -0.05 -0.06 -0.06 -0.06 -0.08 -0.30 -0.30 -0.37 -0.37 -0.32 -0.11 -0.11 -0.28 -0.29 -0.27 -0.27 -0.14 -0.20 -0.30 -0.30 -0.36 -0.34 -0.34 -0.39 -0.32 -0.30 -0.30 -0.20 -0.23 -0.30 -0.34 -0.34 -0.23 -0.11 -0.06 -0.06 -0.08 -0.24 -0.28 -0.28 -0.31 -0.29 -0.29 -0.48 -0.58 -0.65 -0.65 -0.74 -0.86 -0.88 -0.89 -0.89 -0.93 -0.97 -1.32 -1.32 -1.33 -1.45 -1.44 -1.44 -1.41 -1.20 -1.20 -0.89 -0.74 -0.86 -0.86 -0.47 -0.34
-0.00 -0.01 -0.02 -0.02 -0.02 -0.02 -0.06 -0.07 -0.06 -0.06 -0.07 -0.11 -0.16 -0.16 -0.14 -0.09 -0.09 -0.09 -0.09 -0.10 -0.10 -0.13 -0.16 -0.20 -0.15 -0.15 -0.12 -0.12 -0.16 -0.16 -0.10 -0.06 -0.03 -0.03 -0.04 -0.05 -0.05 -0.06 -0.10 -0.18 -0.18 -0.28 -0.39 -0.40 -0.28 -0.28 -0.40 -0.46 -0.55 -0.55 -0.33 -0.23 -0.32 -0.32 -0.31 -0.31 -0.31 -0.42 -0.39 -0.40 -0.40 -0.26 -0.25 -0.31 -0.31 -0.31 -0.33 -0.16 -0.09 -0.09 -0.11 -0.08 -0.23 -0.23 -0.30 -0.30 -0.30 -0.29 -0.58 -0.69 -0.69 -0.74 -0.75 -0.95 -1.02 -1.02 -1.01 -0.97 -0.98 -0.98 -1.06 -1.26 -1.39 -1.39 -1.21 -1.39 -1.39 -1.20 -0.91 -1.06 -1.06 -0.93 -0.37
-0.00 -0.01 -0.00 -0.01 -0.03 -0.03 -0.07 -0.07 -0.06 -0.06 -0.06 -0.15 -0.19 -0.19 -0.15 -0.13 -0.13 -0.13 -0.12 -0.12 -0.12 -0.11 -0.14 -0.22 -0.21 -0.21 -0.11 -0.08 -0.14 -0.14 -0.15 -0.05 -0.02 -0.02 -0.04 -0.05 -0.05 -0.08 -0.09 -0.11 -0.11 -0.12 -0.21 -0.23 -0.34 -0.34 -0.58 -0.60 -0.55 -0.55 -0.32 -0.32 -0.34 -0.34 -0.41 -0.38 -0.38 -0.40 -0.52 -0.46 -0.46 -0.40 -0.33 -0.34 -0.38 -0.38 -0.39 -0.30 -0.12 -0.12 -0.14 -0.11 -0.15 -0.15 -0.24 -0.27 -0.27 -0.29 -0.34 -0.70 -0.70 -0.79 -0.80 -0.92 -1.07 -1.07 -0.99 -1.00 -0.95 -0.95 -0.87 -0.94 -1.06 -1.06 -0.92 -1.19 -1.19 -1.49 -1.19 -1.29 -1.29 -1.13 -0.75
-0.01 -0.02 -0.02 -0.02 -0.04 -0.04 -0.07 -0.06 -0.06 -0.06 -0.06 -0.17 -0.19 -0.19 -0.14 -0.13 -0.13 -0.14 -0.13 -0.13 -0.13 -0.10 -0.11 -0.14 -0.15 -0.15 -0.08 -0.06 -0.12 -0.12 -0.14 -0.05 -0.05 -0.05 -0.06 -0.09 -0.09 -0.04 -0.05 -0.08 -0.08 -0.14 -0.17 -0.14 -0.46 -0.46 -0.57 -0.64 -0.47 -0.47 -0.33 -0.38 -0.45 -0.45 -0.47 -0.56 -0.56 -0.47 -0.51 -0.64 -0.64 -0.53 -0.43 -0.44 -0.45 -0.45 -0.43 -0.34 -0.26 -0.26 -0.16 -0.13 -0.11 -0.11 -0.14 -0.24 -0.24 -0.32 -0.41 -0.55 -0.55 -0.90 -0.88 -1.01 -1.14 -1.14 -1.15 -0.92 -0.93 -0.93 -0.73 -0.72 -0.70 -0.70 -0.76 -0.93 -0.93 -1.33 -1.60 -1.54 -1.54 -1.25 -0.89
-0.01 -0.02 -0.03 -0.03 -0.05 -0.05 -0.07 -0.07 -0.07 -0.07 -0.09 -0.18 -0.18 -0.18 -0.10 -0.09 -0.09 -0.11 -0.13 -0.13 -0.13 -0.10 -0.12 -0.10 -0.06 -0.06 -0.04 -0.07 -0.09 -0.09 -0.09 -0.07 -0.04 -0.04 -0.07 -0.11 -0.11 -0.04 -0.05 -0.11 -0.11 -0.20 -0.31 -0.30 -0.63 -0.63 -0.76 -0.92 -0.49 -0.49 -0.36 -0.22 -0.21 -0.21 -0.54 -0.61 -0.61 -0.48 -0.47 -0.65 -0.65 -0.71 -0.58 -0.49 -0.45 -0.45 -0.45 -0.36 -0.29 -0.29 -0.24 -0.13 -0.15 -0.15 -0.11 -0.17 -0.17 -0.36 -0.51 -0.53 -0.53 -0.63 -0.89 -1.09 -1.18 -1.18 -1.16 -1.11 -0.92 -0.92 -0.71 -0.64 -0.60 -0.60 -0.69 -0.87 -0.87 -1.20 -1.60 -1.84 -1.84 -1.81 -1.05
0.01 -0.01 -0.03 -0.05 -0.06 -0.06 -0.08 -0.10 -0.10 -0.10 -0.13 -0.17 -0.14 -0.14 -0.07 -0.08 -0.08 -0.11 -0.13 -0.11 -0.11 -0.09 -0.08 -0.08 -0.05 -0.05 -0.02 -0.05 -0.07 -0.07 -0.07 -0.06 -0.02 -0.02 -0.05 -0.09 -0.09 -0.04 -0.04 -0.09 -0.09 -0.18 -0.38 -0.41 -0.52 -0.52 -0.75 -0.83 -0.65 -0.65 -0.44 -0.33 -0.13 -0.13 -0.21 -0.64 -0.64 -0.59 -0.79 -0.72 -0.72 -0.81 -0.73 -0.56 -0.58 -0.58 -0.46 -0.39 -0.31 -0.31 -0.25 -0.17 -0.17 -0.17 -0.14 -0.18 -0.18 -0.27 -0.57 -0.60 -0.60 -0.64 -0.86 -1.06 -1.10 -1.10 -1.03 -1.08 -1.10 -1.10 -0.95 -0.61 -0.61 -0.61 -0.67 -0.76 -0.76 -0.88 -1.49 -1.82 -1.82 -1.91 -1.69